Orbital Elements at Epoch 2459200.5 (2020-Dec-17.0) TDB
Reference: JPL 16 (heliocentric ecliptic J2000)
Element | Value | Uncertainty (1-sigma) | Units |
e | .2432693069060031 | 4.1809e-08 | |
a | 2.380752925121191 | 8.5331e-09 | au |
q | 1.80158881111252 | 9.6627e-08 | au |
i | 3.083527400468163 | 3.3985e-06 | deg |
node | 138.0126525593685 | 8.9365e-05 | deg |
peri | 240.336951215508 | 8.9975e-05 | deg |
M | 31.53028157969938 | 8.1491e-06 | deg |
tp | 2459082.984469565545 (2020-Aug-21.48446957) | 3.0328e-05 | TDB |
period | 1341.744787450364 3.67 | 7.2136e-06 1.975e-08 | d yr |
n | .2683073587221352 | 1.4425e-09 | deg/d |
Q | 2.959917039129863 | 1.0609e-08 | au |
|
| | Orbit Determination Parameters
Additional Information
|